星链-33733 (STARLINK-33733)

导读

STARLINK-33733是美国SpaceX公司星链(Starlink)星座的第二代卫星,于2025年4月4日发射入轨。星链星座旨在构建全球低轨卫星互联网,为偏远地区、海洋及战区等传统网络覆盖薄弱区域提供高速宽带服务。该卫星搭载星间激光通信终端,可实现全自动太空光互联,单链路传输速率最高可达百Gbps,助力星链构建不依赖地面骨干网的全球无缝覆盖网络,是SpaceX推进大规模星座组网、实现天地一体化互联网的重要组成单元。

基本信息
目录编号:
63435
目录名称:
STARLINK-33733
国际标识:
2025-069C
轨道中心:
EARTH
卫星名称:
星链-33733
卫星全名:
星链-33733 (STARLINK-33733)
卫星状态:
在轨 (已飞行436 天)
发射日期:
2025-04-04 UTC
国别 :
美国 (US)
星等 :
--
轨道信息
数据来源 国际轨道数据 AOE轨道数据
星历时间 2026-06-14T04:31:26+0800
9小时前
查看轨道信息
2026-06-09T00:00:00+0800
5天前
查看轨道信息
半长轴 6796.757km 6796.889km
偏心率 0.0000922 0.0000891
轨道倾角 53.160° 53.160°
近地点辐角 126.326° 102.934°
升交点赤经 51.140° 75.948°
平近点角 233.784° 101.778°
近地点 417.993km 418.146km
远地点 419.247km 419.358km
周期 92.942分钟 92.945分钟
每日圈数 15.493523 15.493072
详细信息
固有亮度:
5
最大亮度:
2.5
卫星平台:
Starlink V1.0
覆盖范围:
全球
运营商:
太空探索技术公司
运营商所在国:
美国
制造商(研发单位):
太空探索技术公司
制造商所在国:
美国
使用方式:
暂无
卫星简介
Starlink 计划是 SpaceX 推出的全球卫星互联网项目,通过发射低轨道卫星,为全球尤其是偏远地区提供高速、低延迟的互联网服务。自 2019 年起,Starlink 已部署数千颗卫星,旨在缩小全球数字鸿沟,推动互联网普及。该项目还为军事、航空等行业提供通信支持,带来广泛经济效益。
2D轨道图
3D轨道图
轨道高度分析图
轨道倾角分析图
轨道综合分析图
查看轨道综合分析图